This is the latest recevied weather packets stored in our database for station/object N5PRN. If no packets are shown the sender has not sent any weather packets the latest 1 day(s).
| Time | Temp. | Humidity | Pressure | Rain* | Wind** | Luminosity | Snow |
|---|---|---|---|---|---|---|---|
| 1778024102 | 25.56° C | 89% | 1008.3 hPa | 0 mm | 1.34 m/s, 240° | 42 W/m² | - |
| 1778023799 | 25.56° C | 88% | 1008 hPa | 0 mm | 0.45 m/s, 208° | 40 W/m² | - |
| 1778023498 | 25.56° C | 88% | 1008 hPa | 0 mm | 3.13 m/s, 195° | 79 W/m² | - |
| 1778023194 | 25.56° C | 87% | 1008.2 hPa | 0 mm | 1.79 m/s, 207° | 125 W/m² | - |
| 1778022891 | 25.56° C | 87% | 1008.4 hPa | 0 mm | 0.89 m/s, 230° | 84 W/m² | - |
| 1778022589 | 25.56° C | 87% | 1008.3 hPa | 0 mm | 2.24 m/s, 187° | 116 W/m² | - |
| 1778022281 | 25.56° C | 87% | 1008.3 hPa | 0 mm | 0.89 m/s, 208° | 141 W/m² | - |
| 1778021977 | 25.56° C | 87% | 1008.3 hPa | 0 mm | 1.34 m/s, 138° | 157 W/m² | - |
| 1778021674 | 25.56° C | 87% | 1008.2 hPa | 0 mm | 1.79 m/s, 192° | 122 W/m² | - |
| 1778021370 | 25.56° C | 88% | 1008.4 hPa | 0 mm | 0.45 m/s, 198° | 85 W/m² | - |
| 1778021068 | 25.56° C | 87% | 1008.5 hPa | 0 mm | 0.89 m/s, 222° | 76 W/m² | - |
| 1778020765 | 25.56° C | 88% | 1008.4 hPa | 0 mm | 1.34 m/s, 209° | 92 W/m² | - |
| 1778020461 | 25.56° C | 88% | 1008.5 hPa | 0 mm | 1.34 m/s, 176° | 84 W/m² | - |
| 1778020158 | 25.56° C | 87% | 1008.4 hPa | 0 mm | 0.89 m/s, 142° | 80 W/m² | - |
| 1778019854 | 25.56° C | 87% | 1008.2 hPa | 0 mm | 1.34 m/s, 180° | 95 W/m² | - |
| 1778019550 | 25.56° C | 86% | 1008.3 hPa | 0 mm | 2.24 m/s, 228° | 120 W/m² | - |
| 1778019248 | 25.56° C | 87% | 1008.5 hPa | 0 mm | 0.45 m/s, 183° | 150 W/m² | - |
| 1778018944 | 26.11° C | 86% | 1008.1 hPa | 0 mm | 1.34 m/s, 188° | 131 W/m² | - |
| 1778018641 | 25.56° C | 86% | 1008.2 hPa | 0 mm | 0.45 m/s, 197° | 203 W/m² | - |
| 1778018339 | 25.56° C | 86% | 1008.4 hPa | 0 mm | 1.34 m/s, 178° | 216 W/m² | - |
| 1778018037 | 25.56° C | 86% | 1008.4 hPa | 0 mm | 1.34 m/s, 178° | 249 W/m² | - |
| 1778017735 | 25.56° C | 87% | 1008.6 hPa | 0 mm | 1.34 m/s, 189° | 315 W/m² | - |
| 1778017432 | 25.56° C | 87% | 1008.8 hPa | 0 mm | 2.24 m/s, 230° | 192 W/m² | - |
| 1778017129 | 25.56° C | 87% | 1008.7 hPa | 0 mm | 0.89 m/s, 223° | 152 W/m² | - |
| 1778016827 | 25.56° C | 87% | 1008.8 hPa | 0 mm | 0.45 m/s, 226° | 175 W/m² | - |
* Rain latest hour (hover to see other rain measurements)
** Current wind speed in m/s (hover to see current wind gust speed)